CAPE
0 0 20 321 369 351 250 296 298 254 200 204 186 233 232 177 37 0 0 0 6 31 65 117 147 254 411 639 707 692 786 823 793
0 6 24 53 259 344 338 335 381 362 249 229 187 183 177 147 113 25 1 0 0 12 19 47 117 94 68 62 347 469 761 876 894
0 24 43 74 158 284 343 359 389 399 385 327 248 200 187 149 124 101 30 7 0 0 11 39 74 85 49 37 95 237 477 472 614
0 19 100 93 160 234 311 420 455 478 510 463 342 258 211 182 145 117 104 80 30 7 17 55 92 160 180 118 308 363 432 715 637
0 0 52 182 220 209 350 467 542 574 596 575 507 350 333 279 260 215 186 151 76 26 24 60 114 148 28 2 46 159 296 688 814
0 0 0 0 259 296 329 476 587 638 679 636 560 504 419 353 319 351 299 247 181 107 74 102 140 288 197 549 687 658 707 748 617
0 0 0 30 167 298 382 461 540 614 719 712 618 593 522 466 389 361 360 335 318 265 205 210 168 272 273 257 468 649 653 601 588
0 0 0 62 189 346 444 518 538 558 631 757 719 716 678 608 509 453 472 385 311 286 356 414 472 505 391 446 466 676 685 648 578
0 0 2 112 317 400 451 565 649 710 717 778 814 810 807 794 720 663 657 553 402 317 302 385 437 506 449 447 558 573 618 693 693
244 429 539 617 686 412 463 568 692 815 909 942 955 943 899 912 889 878 876 799 614 486 427 420 358 340 285 253 277 204 223 314 466
647 875 1055 1088 1297 1334 705 572 689 866 1067 1133 1151 1141 1060 974 945 947 997 981 905 770 633 510 439 398 472 497 419 291 411 568 459
398 446 646 1044 1671 2227 2053 993 829 994 1132 1264 1334 1293 1238 1085 1042 1031 1034 1059 1049 1014 951 785 639 724 813 788 683 411 549 99 0
243 171 135 291 513 1487 2606 2196 937 1202 1279 1381 1444 1405 1378 1304 1186 1142 1108 1069 1079 1104 1081 1090 1009 1010 1121 1059 1031 587 196 0 0
9 83 85 0 0 0 240 2254 1585 1296 1374 1570 1415 1485 1567 1551 1462 1373 1280 1192 1110 1180 1215 1264 1289 1372 1369 1359 1110 698 25 0 0
0 1 75 44 1 0 0 72 1590 2029 1988 1648 1380 1324 1437 1556 1564 1564 1485 1488 1425 1442 1467 1520 1585 1633 1457 911 329 57 2 0 0
1 0 0 0 0 0 0 0 0 293 1763 1680 1957 2020 1884 1777 1516 1562 1548 1602 1557 1594 1590 1623 1502 1536 1291 527 7 1 0 0 0
0 0 0 0 0 0 0 2 0 1 413 1269 1467 1366 1570 1471 1408 1335 1260 1370 1175 1257 1388 1469 1501 1183 838 142 1 0 0 0 0
0 0 0 0 0 0 0 0 0 16 130 561 800 661 594 592 634 609 336 117 43 8 68 624 1137 801 280 22 0 0 0 0 0
0 0 0 0 0 0 0 0 0 0 8 296 471 494 287 3 0 0 155 227 0 0 0 0 26 43 16 0 0 0 0 0 0
0 0 0 0 0 0 0 0 0 0 25 194 266 402 419 305 18 0 58 84 7 0 0 0 0 0 0 0 0 0 0 0 0
CIN
-0 -0 -298 -232 -303 -353 -429 -390 -372 -350 -352 -306 -312 -261 -211 -184 -201 -0 -0 -0 -161 -117 -84 -67 -67 -54 -52 -43 -42 -39 -43 -44 -46
-0 -253 -260 -236 -332 -396 -422 -458 -392 -345 -356 -352 -349 -306 -269 -232 -204 -220 -170 -0 -0 -96 -111 -90 -76 -95 -94 -98 -63 -47 -42 -40 -37
-0 -217 -252 -269 -310 -365 -480 -476 -454 -427 -362 -324 -360 -350 -300 -268 -236 -207 -210 -263 -0 -0 -141 -116 -101 -103 -117 -133 -111 -81 -61 -61 -54
-0 -178 -202 -226 -267 -369 -482 -552 -537 -493 -382 -372 -396 -381 -341 -295 -276 -256 -231 -209 -212 -136 -157 -140 -145 -101 -80 -99 -82 -77 -79 -63 -51
-0 -0 -202 -263 -294 -361 -438 -530 -544 -519 -453 -394 -404 -385 -364 -314 -284 -269 -255 -237 -235 -222 -198 -183 -141 -117 -128 -30 -114 -90 -82 -59 -49
-0 -0 -0 -0 -338 -344 -413 -486 -544 -527 -506 -430 -448 -406 -387 -351 -314 -282 -256 -246 -248 -251 -209 -170 -146 -102 -104 -70 -64 -64 -62 -54 -39
-0 -0 -0 -312 -327 -315 -375 -438 -507 -539 -516 -468 -464 -445 -387 -350 -317 -287 -271 -259 -245 -236 -224 -184 -166 -142 -119 -107 -73 -60 -58 -58 -46
-0 -0 -0 -232 -244 -317 -369 -411 -498 -550 -545 -512 -492 -427 -401 -355 -326 -311 -273 -274 -285 -252 -213 -177 -152 -129 -130 -111 -99 -72 -56 -53 -52
-0 -3 -4 -276 -267 -352 -331 -361 -400 -449 -511 -547 -512 -469 -365 -383 -341 -299 -267 -262 -272 -271 -252 -213 -189 -168 -147 -138 -119 -121 -112 -100 -92
-221 -232 -226 -225 -255 -342 -357 -413 -448 -351 -467 -561 -485 -441 -432 -388 -358 -288 -286 -275 -281 -286 -279 -264 -253 -225 -226 -227 -241 -271 -248 -198 -184
-331 -290 -280 -294 -289 -309 -365 -441 -463 -488 -483 -459 -443 -405 -423 -399 -357 -293 -292 -274 -259 -274 -289 -288 -264 -258 -245 -252 -281 -306 -245 -182 -204
-451 -491 -489 -447 -398 -345 -351 -413 -453 -459 -451 -421 -412 -375 -369 -373 -351 -287 -285 -250 -254 -258 -269 -269 -266 -245 -218 -227 -250 -309 -240 -337 -0
-330 -424 -467 -451 -502 -387 -304 -349 -471 -396 -369 -343 -324 -307 -316 -348 -340 -301 -250 -251 -251 -247 -255 -223 -243 -215 -196 -192 -170 -267 -353 -0 -0
-280 -385 -374 -0 -0 -0 -459 -233 -345 -337 -332 -265 -284 -316 -295 -291 -296 -296 -279 -251 -270 -242 -215 -205 -189 -163 -160 -155 -183 -248 -393 -0 -0
-0 -122 -304 -355 -87 -14 -0 -431 -156 -123 -169 -271 -316 -306 -298 -276 -260 -260 -255 -220 -213 -192 -178 -156 -147 -136 -145 -250 -407 -523 -0 -0 -0
-87 -0 -0 -0 -0 -0 -0 -0 -38 -125 -152 -191 -156 -157 -222 -236 -261 -255 -250 -206 -197 -159 -152 -131 -161 -145 -160 -321 -574 -0 -0 -0 -0
-0 -0 -0 -0 -0 -0 -0 -38 -101 -45 -242 -185 -169 -187 -190 -237 -221 -242 -242 -217 -160 -168 -152 -126 -114 -162 -217 -427 -0 -0 -0 -0 -0
-0 -0 -0 -0 -0 -0 -0 -0 -0 -149 -217 -173 -162 -229 -270 -289 -300 -310 -449 -558 -516 -290 -373 -181 -103 -177 -356 -493 -0 -0 -0 -0 -0
-0 -0 -0 -0 -0 -0 -0 -0 -0 -0 -141 -151 -157 -203 -294 -132 -0 -21 -447 -382 -0 -0 -0 -0 -303 -441 -460 -0 -0 -0 -0 -0 -0
-0 -0 -0 -0 -0 -0 -0 -0 -0 -0 -227 -190 -184 -169 -200 -240 -461 -0 -434 -424 -487 -0 -0 -0 -0 -0 -0 -0 -0 -0 -0 -0 -0
Wind_Speed
13 16 15 15 17 17 19 19 18 17 19 18 17 18 19 18 16 14 13 15 6 5 3 3 4 7 14 16 17 17 15 15 16
8 14 17 18 18 16 16 16 18 18 17 17 16 16 15 17 18 19 17 13 12 9 5 6 11 13 16 14 15 17 16 16 11
7 8 15 15 15 16 14 13 14 16 17 16 15 13 14 14 16 18 18 17 19 14 8 7 8 16 14 15 15 19 19 18 15
7 11 12 15 17 15 13 10 10 12 15 14 13 13 13 13 13 15 17 20 20 19 17 15 15 14 13 13 20 23 23 20 17
13 20 17 15 20 15 14 10 8 9 13 16 15 12 11 12 10 11 13 19 20 19 21 20 18 17 15 3 31 22 28 13 13
10 9 22 18 13 9 9 8 9 11 12 15 13 11 8 9 9 10 13 16 19 20 20 20 18 12 5 1 14 13 11 11 15
15 10 7 6 7 13 12 12 15 15 14 14 12 12 10 7 9 10 11 10 13 18 20 19 18 16 13 7 7 11 9 11 12
18 15 6 6 11 8 11 9 9 10 11 12 14 15 12 12 9 7 6 7 10 13 15 16 14 11 8 4 5 5 5 6 7
19 21 23 22 9 3 5 5 7 7 7 8 7 9 13 9 8 7 8 7 8 9 9 9 10 9 7 9 7 7 6 6 8
19 22 21 21 23 18 7 3 6 8 7 4 4 7 7 9 7 8 7 6 5 8 12 10 10 6 7 10 7 5 5 6 7
20 19 20 22 23 21 13 7 1 0 1 2 2 5 7 8 8 7 6 6 6 5 5 8 6 6 8 5 4 4 5 5 10
16 19 20 20 20 22 21 11 7 6 4 2 2 5 5 7 10 8 7 7 6 5 4 4 5 5 5 6 6 6 8 8 14
17 18 18 20 20 21 20 21 11 8 7 5 5 6 7 10 10 10 10 10 10 11 7 7 7 8 8 7 9 7 8 11 17
21 17 17 18 19 21 23 22 17 14 12 12 12 11 11 15 14 12 15 16 14 13 12 12 11 11 12 12 13 14 11 15 18
24 25 25 22 23 24 26 24 23 22 18 18 18 18 16 17 18 19 20 19 20 18 16 16 14 15 14 16 16 14 14 16 18
28 28 29 27 24 21 17 25 23 31 25 21 26 23 22 23 22 22 22 22 23 22 19 18 16 14 12 14 15 14 13 17 20
29 29 31 31 30 27 26 23 19 24 27 24 23 23 23 23 25 27 27 26 28 24 20 18 17 13 13 14 14 13 14 17 18
29 31 32 33 35 35 35 31 29 26 28 30 28 26 24 22 22 24 24 24 24 26 30 24 17 14 11 10 11 11 11 13 15
33 31 30 33 35 35 33 32 32 31 31 34 30 30 27 26 28 26 23 18 20 22 33 47 22 13 8 8 10 7 9 12 14
39 37 35 34 35 36 36 36 35 32 29 30 31 34 32 29 27 26 24 27 23 33 27 29 22 12 6 6 5 6 8 11 14
Wind_Direction
124 138 147 152 153 150 156 159 159 158 161 161 158 162 168 168 166 168 174 176 250 253 224 282 279 284 290 291 293 297 307 316 318
72 131 149 157 155 153 154 157 164 164 161 163 161 162 160 167 170 173 175 179 182 188 203 275 290 288 291 293 297 302 307 312 333
48 103 149 157 160 159 155 158 160 164 167 167 164 160 162 164 169 174 175 176 183 184 194 196 278 286 291 295 299 297 301 310 317
124 147 158 168 171 165 157 150 152 162 171 169 163 164 163 164 168 171 174 181 183 184 181 179 180 184 185 297 291 291 296 307 314
163 188 181 169 175 164 161 156 157 162 167 176 174 164 163 167 164 166 171 179 182 180 184 183 184 184 181 255 261 296 277 319 323
340 145 199 172 150 159 166 163 162 166 168 174 173 170 165 167 166 164 171 175 179 180 180 181 179 174 173 244 308 313 319 322 318
329 354 37 66 104 151 155 163 170 171 168 166 168 172 173 171 171 167 166 165 169 177 179 181 182 186 188 196 299 309 310 313 316
311 318 0 120 141 130 148 150 156 161 162 161 160 171 176 179 176 172 167 169 167 170 175 181 184 189 198 249 268 283 287 297 297
308 304 297 287 323 44 126 145 150 143 150 159 159 168 178 176 176 173 172 171 174 174 180 183 186 193 208 206 216 223 243 288 305
306 300 297 295 286 299 335 73 137 153 149 140 172 180 183 179 187 182 175 170 176 175 176 176 183 197 200 201 215 241 276 294 305
305 307 303 300 296 302 316 320 196 7 86 163 209 195 198 194 191 202 200 188 187 191 186 182 187 194 194 208 243 273 285 283 309
317 311 311 314 314 306 304 307 302 295 306 283 236 265 236 223 199 209 230 214 227 248 230 226 221 263 264 277 285 279 293 313 320
315 317 315 312 318 312 312 304 296 290 291 288 287 290 273 274 254 233 221 239 258 273 263 261 280 288 290 287 296 286 300 311 318
308 314 317 320 325 320 316 308 302 294 293 298 304 305 296 284 274 258 263 269 269 271 274 282 285 293 302 308 309 311 301 312 316
303 303 300 304 304 305 317 321 317 302 298 305 300 296 296 290 284 278 274 272 274 273 274 279 285 294 304 312 315 316 320 323 324
292 294 295 299 301 307 300 304 305 306 305 313 293 293 292 291 290 282 277 274 273 273 273 274 279 286 296 308 317 325 329 328 329
290 290 288 293 294 298 302 303 305 305 306 307 302 305 300 299 294 286 286 282 273 268 267 270 274 278 292 305 314 322 331 334 338
292 289 291 291 292 290 291 297 299 295 301 300 298 298 298 302 301 295 291 288 292 289 280 273 268 277 290 303 316 327 342 345 353
289 292 292 291 291 289 291 291 294 296 287 284 292 292 295 295 294 291 287 285 291 291 294 282 268 283 293 312 332 360 2 358 0
284 284 287 289 290 287 286 285 288 291 291 291 290 286 292 294 291 291 286 288 288 277 275 289 273 285 308 333 355 27 20 9 5